Zurück zum Katalog

SL-8 DEB

AktivLEO
NORAD 21408·DEBRIS·🇷🇺 Russia

Gestartet Feb 12, 1991 von Plesetsk Cosmodrome

Loading…

Nächste Überflüge (nächste 24 Stunden)

TLE

AktuellSource: Space-Track

Epoche: Sep 14, 2026, 06:36 UTC

1 21408U 91009BX  26257.27528291  .00000019  00000-0  32569-3 0  9990
2 21408  74.0267 197.4439 0201228 329.5049 183.0650 12.15997501576266

Verfolge SL-8 DEB in Echtzeit mit AllMySat

Download on the App Store